Location: Makakahi
(40.6833°S, 175.6000°E)
Time: 07:28:41
(UTC+00:00)

DMSP F15 (USA 147) - Pass Details

Date: 14 December 2024
Orbit: 827 x 842 km, 99.1° (Epoch: 18 January)

Event Time Altitude Azimuth Distance (km) Brightness Sun altitude
Rises 08:56:48 0° 181° (S) 3,437 9.1 -11.6°
Reaches altitude 10° 08:59:43 10° 195° (SSW) 2,494 8.7 -12.0°
Maximum altitude 09:03:43 21° 242° (WSW) 1,832 8.0 -12.5°
Drops below altitude 10° 09:07:41 10° 289° (WNW) 2,473 8.0 -13.0°
Sets 09:10:35 0° 304° (NW) 3,399 8.5 -13.4°
